• en Suisse
  • Liste des pays
  • À 7 jours
  • Température de l'eau
  • Carte satellitaire
  • Carte météo
  • Widgets météo
  • user-avatar
    Se connecter

    Météo par heure à Siempang

    Ce jour, 23 Octobre, Mardi

    Heure Température Précipitation Vent Pression Humidité
    00:00 +24°C° 0.7 mm 0 m/s 753 mmHg 90%
    01:00 +24°C° 0 mm 0 m/s 753 mmHg 91%
    02:00 +24°C° 0.1 mm 0 m/s 753 mmHg 92%
    03:00 +23°C° 0.1 mm 0 m/s 753 mmHg 93%
    04:00 +23°C° 0.1 mm 0 m/s 753 mmHg 94%
    05:00 +24°C° 0 mm 0 m/s 753 mmHg 92%
    06:00 +24°C° 0 mm 0 m/s 753 mmHg 90%
    07:00 +25°C° 0 mm 0 m/s 753 mmHg 85%
    08:00 +27°C° 0 mm 0 m/s 753 mmHg 75%
    09:00 +32°C° 0 mm 1 m/s 753 mmHg 65%
    10:00 +34°C° 0 mm 1 m/s 753 mmHg 55%
    11:00 +35°C° 0 mm 1 m/s 752 mmHg 50%
    12:00 +36°C° 0 mm 1 m/s 752 mmHg 45%
    13:00 +37°C° 0 mm 1 m/s 751 mmHg 41%
    14:00 +37°C° 0 mm 1 m/s 751 mmHg 43%
    15:00 +36°C° 0 mm 1 m/s 750 mmHg 46%
    16:00 +36°C° 0 mm 1 m/s 750 mmHg 49%
    17:00 +34°C° 0 mm 1 m/s 750 mmHg 56%
    18:00 +31°C° 0 mm 1 m/s 751 mmHg 64%
    19:00 +27°C° 0 mm 0 m/s 751 mmHg 71%
    20:00 +27°C° 0 mm 0 m/s 752 mmHg 73%
    21:00 +28°C° 0 mm 1 m/s 752 mmHg 75%
    22:00 +28°C° 0 mm 1 m/s 753 mmHg 77%
    23:00 +27°C° 0 mm 1 m/s 753 mmHg 79%

    Demain, 24 Octobre, Mercredi

    Heure Température Précipitation Vent Pression Humidité
    00:00 +27°C° 0 mm 1 m/s 753 mmHg 82%
    01:00 +26°C° 0 mm 1 m/s 753 mmHg 85%
    02:00 +25°C° 0 mm 1 m/s 753 mmHg 86%
    03:00 +25°C° 0 mm 1 m/s 753 mmHg 88%
    04:00 +25°C° 0 mm 1 m/s 753 mmHg 90%
    05:00 +23°C° 0 mm 0 m/s 753 mmHg 88%
    06:00 +24°C° 0 mm 0 m/s 753 mmHg 85%
    07:00 +24°C° 0 mm 0 m/s 754 mmHg 83%
    08:00 +29°C° 0 mm 1 m/s 754 mmHg 73%
    09:00 +32°C° 0 mm 1 m/s 754 mmHg 62%
    10:00 +35°C° 0 mm 1 m/s 754 mmHg 52%
    11:00 +36°C° 0 mm 1 m/s 753 mmHg 47%
    12:00 +36°C° 0 mm 0 m/s 752 mmHg 43%
    13:00 +37°C° 0 mm 0 m/s 751 mmHg 38%
    14:00 +36°C° 0 mm 0 m/s 751 mmHg 40%
    15:00 +35°C° 0 mm 0 m/s 750 mmHg 42%
    16:00 +35°C° 0 mm 0 m/s 750 mmHg 44%
    17:00 +32°C° 0 mm 0 m/s 751 mmHg 52%
    18:00 +30°C° 0 mm 0 m/s 751 mmHg 60%
    19:00 +28°C° 0 mm 0 m/s 752 mmHg 68%
    20:00 +27°C° 0.2 mm 0 m/s 752 mmHg 70%
    21:00 +27°C° 0.2 mm 0 m/s 753 mmHg 73%
    22:00 +26°C° 0.2 mm 0 m/s 753 mmHg 76%
    23:00 +28°C° 0.2 mm 1 m/s 753 mmHg 79%

    Après-demain, 25 Octobre, Jeudi

    Heure Température Précipitation Vent Pression Humidité
    00:00 +27°C° 0.2 mm 1 m/s 753 mmHg 82%
    01:00 +26°C° 0.2 mm 1 m/s 753 mmHg 85%
    02:00 +26°C° 0 mm 1 m/s 753 mmHg 87%
    03:00 +25°C° 0 mm 1 m/s 753 mmHg 89%
    04:00 +23°C° 0 mm 0 m/s 753 mmHg 91%
    05:00 +25°C° 0 mm 1 m/s 753 mmHg 88%
    06:00 +26°C° 0 mm 1 m/s 754 mmHg 86%
    07:00 +26°C° 0 mm 1 m/s 754 mmHg 84%
    08:00 +29°C° 0 mm 1 m/s 754 mmHg 74%
    09:00 +32°C° 0 mm 1 m/s 755 mmHg 64%
    10:00 +35°C° 0 mm 1 m/s 755 mmHg 54%
    11:00 +34°C° 0 mm 0 m/s 754 mmHg 50%
    12:00 +35°C° 0 mm 0 m/s 753 mmHg 46%
    13:00 +36°C° 0 mm 0 m/s 752 mmHg 42%
    14:00 +35°C° 0 mm 0 m/s 751 mmHg 44%
    15:00 +37°C° 0 mm 1 m/s 751 mmHg 46%
    16:00 +36°C° 0 mm 1 m/s 750 mmHg 48%
    17:00 +34°C° 0 mm 1 m/s 751 mmHg 57%
    18:00 +31°C° 0 mm 1 m/s 751 mmHg 65%
    19:00 +27°C° 0 mm 0 m/s 752 mmHg 74%
    20:00 +26°C° 0 mm 0 m/s 753 mmHg 76%
    21:00 +26°C° 0 mm 0 m/s 753 mmHg 79%
    22:00 +26°C° 0 mm 0 m/s 754 mmHg 81%
    23:00 +25°C° 0 mm 0 m/s 754 mmHg 82%

    26 Octobre, Vendredi

    Heure Température Précipitation Vent Pression Humidité
    00:00 +25°C° 0 mm 0 m/s 754 mmHg 83%
    01:00 +27°C° 0 mm 1 m/s 754 mmHg 84%
    02:00 +26°C° 0 mm 1 m/s 754 mmHg 85%
    03:00 +26°C° 0 mm 1 m/s 753 mmHg 86%
    04:00 +25°C° 0 mm 1 m/s 753 mmHg 87%
    05:00 +26°C° 0 mm 1 m/s 754 mmHg 86%
    06:00 +24°C° 0 mm 0 m/s 754 mmHg 85%
    07:00 +25°C° 0 mm 0 m/s 755 mmHg 83%
    08:00 +28°C° 0 mm 0 m/s 755 mmHg 73%
    09:00 +30°C° 0 mm 0 m/s 755 mmHg 63%
    10:00 +33°C° 0 mm 0 m/s 755 mmHg 53%
    11:00 +34°C° 0 mm 0 m/s 754 mmHg 49%
    12:00 +35°C° 0 mm 0 m/s 753 mmHg 46%
    13:00 +36°C° 0 mm 0 m/s 752 mmHg 43%
    14:00 +35°C° 0 mm 0 m/s 752 mmHg 45%
    15:00 +36°C° 0 mm 1 m/s 751 mmHg 48%
    16:00 +35°C° 0 mm 1 m/s 751 mmHg 50%
    17:00 +33°C° 0 mm 1 m/s 751 mmHg 58%
    18:00 +29°C° 0 mm 0 m/s 752 mmHg 65%
    19:00 +27°C° 0 mm 0 m/s 752 mmHg 73%
    20:00 +27°C° 0 mm 0 m/s 753 mmHg 75%
    21:00 +26°C° 0 mm 0 m/s 753 mmHg 77%
    22:00 +26°C° 0 mm 0 m/s 754 mmHg 79%
    23:00 +25°C° 0.2 mm 0 m/s 754 mmHg 81%

    27 Octobre, Samedi

    Heure Température Précipitation Vent Pression Humidité
    00:00 +27°C° 0.2 mm 1 m/s 754 mmHg 84%
    01:00 +26°C° 0.2 mm 1 m/s 753 mmHg 86%
    02:00 +26°C° 0.1 mm 1 m/s 753 mmHg 88%
    03:00 +26°C° 0.1 mm 1 m/s 753 mmHg 89%
    04:00 +25°C° 0.1 mm 1 m/s 753 mmHg 91%
    05:00 +26°C° 0 mm 1 m/s 753 mmHg 89%
    06:00 +26°C° 0 mm 1 m/s 754 mmHg 87%
    07:00 +25°C° 0 mm 0 m/s 755 mmHg 85%
    08:00 +29°C° 0 mm 1 m/s 755 mmHg 74%
    09:00 +32°C° 0 mm 1 m/s 755 mmHg 63%
    10:00 +35°C° 0 mm 1 m/s 755 mmHg 52%
    11:00 +36°C° 0 mm 1 m/s 754 mmHg 49%
    12:00 +37°C° 0 mm 1 m/s 753 mmHg 45%
    13:00 +35°C° 0 mm 0 m/s 752 mmHg 42%
    14:00 +35°C° 0 mm 0 m/s 752 mmHg 46%
    15:00 +34°C° 0 mm 0 m/s 751 mmHg 50%
    16:00 +33°C° 0 mm 0 m/s 751 mmHg 54%
    17:00 +31°C° 0 mm 0 m/s 751 mmHg 58%
    18:00 +30°C° 0 mm 0 m/s 752 mmHg 63%
    19:00 +28°C° 0 mm 0 m/s 753 mmHg 67%
    20:00 +27°C° 0.4 mm 0 m/s 753 mmHg 73%
    21:00 +26°C° 0.4 mm 0 m/s 753 mmHg 79%
    22:00 +25°C° 0.4 mm 0 m/s 754 mmHg 84%
    23:00 +25°C° 0.2 mm 0 m/s 754 mmHg 86%

    28 Octobre, Dimanche

    Heure Température Précipitation Vent Pression Humidité
    00:00 +24°C° 0.2 mm 0 m/s 753 mmHg 88%
    01:00 +24°C° 0.2 mm 0 m/s 753 mmHg 89%
    02:00 +23°C° 0 mm 0 m/s 753 mmHg 90%
    03:00 +23°C° 0 mm 0 m/s 753 mmHg 91%
    04:00 +22°C° 0 mm 0 m/s 753 mmHg 92%
    05:00 +23°C° 0 mm 0 m/s 754 mmHg 90%
    06:00 +23°C° 0 mm 0 m/s 754 mmHg 89%
    07:00 +24°C° 0 mm 0 m/s 755 mmHg 87%
    08:00 +29°C° 0 mm 1 m/s 754 mmHg 75%
    09:00 +32°C° 0 mm 1 m/s 754 mmHg 62%
    10:00 +34°C° 0 mm 1 m/s 754 mmHg 50%
    11:00 +36°C° 0 mm 1 m/s 753 mmHg 46%
    12:00 +37°C° 0 mm 1 m/s 752 mmHg 42%
    13:00 +39°C° 0 mm 1 m/s 751 mmHg 38%
    14:00 +37°C° 0 mm 1 m/s 751 mmHg 42%
    15:00 +34°C° 0 mm 0 m/s 750 mmHg 46%
    16:00 +33°C° 0 mm 0 m/s 750 mmHg 50%
    17:00 +31°C° 0.1 mm 0 m/s 751 mmHg 56%
    18:00 +29°C° 0.1 mm 0 m/s 751 mmHg 62%
    19:00 +30°C° 0.1 mm 1 m/s 752 mmHg 68%
    20:00 +29°C° 0.2 mm 1 m/s 752 mmHg 73%
    21:00 +28°C° 0.2 mm 1 m/s 753 mmHg 78%
    22:00 +27°C° 0.2 mm 1 m/s 753 mmHg 83%
    23:00 +27°C° 0.1 mm 1 m/s 753 mmHg 85%

    29 Octobre, Lundi

    Heure Température Précipitation Vent Pression Humidité
    00:00 +26°C° 0.1 mm 1 m/s 753 mmHg 88%
    01:00 +26°C° 0.1 mm 1 m/s 752 mmHg 90%
    02:00 +25°C° 0.3 mm 1 m/s 752 mmHg 91%
    03:00 +23°C° 0.3 mm 0 m/s 752 mmHg 92%
    04:00 +23°C° 0.3 mm 0 m/s 752 mmHg 93%
    05:00 +23°C° 0 mm 0 m/s 753 mmHg 91%
    06:00 +24°C° 0 mm 0 m/s 753 mmHg 89%
    07:00 +24°C° 0 mm 0 m/s 754 mmHg 88%
    08:00 +29°C° 0 mm 1 m/s 754 mmHg 76%
    09:00 +32°C° 0 mm 1 m/s 754 mmHg 64%
    10:00 +34°C° 0 mm 1 m/s 754 mmHg 52%
    11:00 +35°C° 0.1 mm 1 m/s 753 mmHg 50%
    12:00 +35°C° 0.1 mm 1 m/s 752 mmHg 48%
    13:00 +36°C° 0.1 mm 1 m/s 751 mmHg 47%
    14:00 +35°C° 0.1 mm 1 m/s 751 mmHg 49%
    15:00 +35°C° 0.1 mm 1 m/s 751 mmHg 52%
    16:00 +32°C° 0.1 mm 0 m/s 750 mmHg 54%
    17:00 +33°C° 0.1 mm 1 m/s 751 mmHg 59%
    18:00 +31°C° 0.1 mm 1 m/s 752 mmHg 64%
    19:00 +30°C° 0.1 mm 1 m/s 752 mmHg 69%
    20:00 +29°C° 0.1 mm 1 m/s 753 mmHg 71%
    21:00 +28°C° 0.1 mm 1 m/s 753 mmHg 74%
    22:00 +27°C° 0.1 mm 1 m/s 753 mmHg 76%
    23:00 +27°C° 0 mm 1 m/s 753 mmHg 78%
    Voir plus